Location: Caualo
(45.5667°N, 10.8667°E)
Time: 11:14:34
(UTC+00:00)

In-Cosmos 22 Rocket - Pass Details

Date: 04 October 2020
Orbit: 790 x 889 km, 81.2° (Epoch: 20 October)

Event Time Altitude Azimuth Distance (km) Brightness Sun altitude
Rises 20:33:55 0° 349° (NNW) 3,324 7.9 -37.7°
Reaches altitude 10° 20:36:19 10° 349° (N) 2,380 7.0 -38.0°
Enters shadow 20:37:48 19° 350° (N) 1,815 6.3 -38.2°
